Weather reports worldwide

Advertisment
London/Heathrow Intl, United Kingdom (3772): temperature & dewpoint: 19.03.2017 21:00:00 - 25.03.2017 21:00:00 (GMT)London/Heathrow Intl, United Kingdom (3772): wind speed & gusts: 19.03.2017 21:00:00 - 25.03.2017 21:00:00 (GMT)London/Heathrow Intl, United Kingdom (3772): wind direction: 19.03.2017 21:00:00 - 25.03.2017 21:00:00 (GMT)London/Heathrow Intl, United Kingdom (3772): reduced air pressure: 19.03.2017 21:00:00 - 25.03.2017 21:00:00 (GMT)London/Heathrow Intl, United Kingdom (3772): visibility: 19.03.2017 21:00:00 - 25.03.2017 21:00:00 (GMT)London/Heathrow Intl, United Kingdom (3772): sunshine duration: 19.03.2017 21:00:00 - 25.03.2017 21:00:00 (GMT)London/Heathrow Intl, United Kingdom (3772): precipitation: 19.03.2017 21:00:00 - 25.03.2017 21:00:00 (GMT)
Date & Time tt [°C] td [°C] ff [km/h] ff [kn] fx [km/h] fx [kn] dd ppp [hPa] vv [km] sd [min] rr [mm]
25.03.2017 21:00:00 8,9 -7,3 24 13 - - NE 1026,0 10 0 0,0
25.03.2017 20:00:00 9,8 -7,1 18 10 - - ENE 1026,1 10 0 0,0
25.03.2017 19:00:00 10,9 -6,1 18 10 - - ENE 1026,2 10 18 0,0
25.03.2017 18:00:00 12,7 -6,0 22 12 - - ENE 1025,9 10 60 0,0
25.03.2017 17:00:00 14,1 -4,6 21 11 46 25 ENE 1025,8 10 60 0,0
25.03.2017 16:00:00 14,8 -4,7 28 15 46 25 ENE 1026,4 10 60 0,0
25.03.2017 15:00:00 14,7 -2,0 26 14 48 26 ENE 1027,2 10 60 0,0
25.03.2017 14:00:00 15,1 -2,7 26 14 - - ENE 1027,9 10 60 0,0
25.03.2017 13:00:00 14,3 -1,9 24 13 46 25 ENE 1028,8 10 60 0,0
25.03.2017 12:00:00 14,1 -0,2 26 14 46 25 ENE 1029,5 10 60 0,0
25.03.2017 11:00:00 12,9 1,9 21 11 - - ENE 1030,2 10 60 0,0
25.03.2017 10:00:00 11,5 2,2 21 11 - - ENE 1030,9 10 60 0,0
25.03.2017 09:00:00 9,6 2,7 16 9 - - ENE 1031,2 10 60 0,0
25.03.2017 08:00:00 7,5 3,1 13 7 - - ENE 1031,6 10 54 0,0
25.03.2017 07:00:00 4,7 2,3 8 4 - - NNE 1031,5 10 18 0,0
25.03.2017 06:00:00 4,6 2,2 9 5 - - NE 1031,4 10 0 0,0
25.03.2017 05:00:00 4,7 2,3 8 4 - - NE 1031,3 10 0 0,0
25.03.2017 04:00:00 5,3 2,8 13 7 - - NE 1031,5 10 0 0,0
25.03.2017 03:00:00 5,1 2,8 9 5 - - NE 1031,7 10 0 0,0
25.03.2017 02:00:00 5,3 2,8 8 4 - - NE 1031,9 10 0 0,0
25.03.2017 01:00:00 5,9 3,0 11 6 - - NE 1032,4 10 0 0,0
25.03.2017 00:00:00 6,1 2,8 11 6 - - NE 1032,5 10 - 0,0
24.03.2017 23:00:00 6,7 3,0 15 8 - - NE 1032,5 10 0 0,0
24.03.2017 22:00:00 7,2 3,0 13 7 - - NE 1032,5 10 0 0,0
24.03.2017 21:00:00 8,2 3,4 16 9 - - NE 1031,8 10 0 0,0
24.03.2017 20:00:00 9,3 4,1 18 10 - - ENE 1031,8 10 0 0,0
24.03.2017 19:00:00 10,6 3,9 15 8 - - ENE 1030,7 10 12 0,0
24.03.2017 18:00:00 11,9 3,3 18 10 - - ENE 1029,7 10 60 0,0
24.03.2017 17:00:00 13,1 4,2 22 12 - - ENE 1029,2 10 60 0,0
24.03.2017 16:00:00 13,2 5,5 16 9 - - NE 1029,3 10 54 0,0
24.03.2017 15:00:00 12,8 6,2 18 10 - - NE 1029,4 9 42 0,0
24.03.2017 14:00:00 11,6 5,7 18 10 - - ENE 1029,6 8 24 0,0
24.03.2017 13:00:00 11,0 6,7 21 11 - - ENE 1029,7 7 0 0,0
24.03.2017 12:00:00 10,0 5,9 18 10 - - ENE 1029,7 6 12 0,0
24.03.2017 11:00:00 9,3 5,7 21 11 - - ENE 1028,8 6 0 0,0
24.03.2017 10:00:00 8,5 5,7 21 11 - - ENE 1028,1 5 0 0,0
24.03.2017 09:00:00 8,0 5,4 18 10 - - NE 1028,1 5 0 0,0
24.03.2017 08:00:00 7,8 5,1 21 11 - - ENE 1027,5 5 0 0,0
24.03.2017 07:00:00 7,5 4,9 16 9 - - ENE 1026,5 6 0 0,0
24.03.2017 06:00:00 7,3 4,7 15 8 - - NE 1025,7 7 0 0,0
24.03.2017 05:00:00 7,1 4,7 16 9 - - NE 1024,6 7 0 0,0
24.03.2017 04:00:00 6,9 4,8 16 9 - - ENE 1023,9 6 0 0,0
24.03.2017 03:00:00 6,7 4,7 21 11 - - ENE 1023,5 7 0 0,0
24.03.2017 02:00:00 6,8 4,7 16 9 - - ENE 1023,7 7 0 0,0
24.03.2017 01:00:00 6,8 4,6 21 11 - - ENE 1023,5 8 0 0,0
24.03.2017 00:00:00 7,1 4,7 18 10 - - ENE 1022,8 8 - 0,0
23.03.2017 23:00:00 7,1 4,6 16 9 - - NE 1022,2 8 0 0,0
23.03.2017 22:00:00 7,1 4,4 16 9 - - NE 1021,8 10 0 0,0
23.03.2017 21:00:00 7,6 4,0 16 9 - - NE 1020,8 10 0 0,0
23.03.2017 20:00:00 8,2 3,9 21 11 - - NE 1019,5 10 0 0,0
23.03.2017 19:00:00 9,1 3,5 21 11 48 26 NE 1018,6 10 0 0,0
23.03.2017 18:00:00 10,3 3,2 24 13 - - ENE 1018,1 10 36 0,0
23.03.2017 17:00:00 10,9 2,4 29 16 54 29 E 1017,1 10 42 0,0
23.03.2017 16:00:00 11,4 2,9 31 17 55 30 ENE 1016,1 10 12 0,0
23.03.2017 15:00:00 11,4 4,1 31 17 54 29 ENE 1015,4 10 0 0,0
23.03.2017 14:00:00 11,0 3,0 34 18 48 26 ENE 1015,6 10 0 0,0
23.03.2017 13:00:00 11,1 4,0 29 16 52 28 ENE 1015,5 10 0 0,0
23.03.2017 12:00:00 11,5 5,0 29 16 46 25 E 1015,2 10 6 0,0
23.03.2017 11:00:00 10,3 5,1 28 15 - - ENE 1014,9 10 0 0,0
23.03.2017 10:00:00 9,5 5,7 18 10 - - ENE 1014,9 9 12 0,0
23.03.2017 09:00:00 8,6 5,4 18 10 - - ENE 1014,8 8 0 0,0
23.03.2017 08:00:00 7,9 5,8 16 9 - - ENE 1013,7 6 0 0,0
23.03.2017 07:00:00 7,3 5,7 18 10 - - ENE 1012,6 7 0 0,0
23.03.2017 06:00:00 7,1 5,7 11 6 - - ENE 1011,8 8 0 0,0
23.03.2017 05:00:00 7,1 5,8 16 9 - - ENE 1011,3 7 0 0,0
23.03.2017 04:00:00 6,9 6,2 15 8 - - ENE 1011,2 6 0 0,2
23.03.2017 03:00:00 6,1 5,6 5 3 - - NNE 1011,1 3,1 0 1,2
23.03.2017 02:00:00 6,1 5,3 8 4 - - NE 1011,4 6 0 0,8
23.03.2017 01:00:00 6,4 5,1 9 5 - - ENE 1011,2 10 0 0,4
23.03.2017 00:00:00 6,7 4,7 8 4 - - E 1011,0 10 - 0,0
22.03.2017 23:00:00 6,4 5,1 8 4 - - ENE 1010,8 10 0 0,0
22.03.2017 22:00:00 6,1 4,9 9 5 - - E 1010,6 10 0 0,0
22.03.2017 21:00:00 5,8 4,0 8 4 - - SE 1010,3 10 0 0,0
22.03.2017 20:00:00 6,9 3,9 11 6 - - SE 1009,6 10 0 0,0
22.03.2017 19:00:00 7,9 3,1 11 6 - - SSE 1008,8 10 6 0,0
22.03.2017 18:00:00 9,3 3,4 13 7 - - SSE 1007,8 10 18 0,0
22.03.2017 17:00:00 9,8 3,9 13 7 - - W 1006,9 10 54 0,0
22.03.2017 16:00:00 10,1 2,6 21 11 - - S 1006,4 10 24 0,0
22.03.2017 15:00:00 10,3 4,3 21 11 - - SW 1005,9 10 24 0,0
22.03.2017 14:00:00 10,6 5,6 24 13 - - S 1005,6 10 42 0,0
22.03.2017 13:00:00 7,6 5,8 18 10 52 28 SSW 1005,5 10 18 1,4
22.03.2017 12:00:00 8,6 6,2 24 13 - - SSE 1004,6 10 0 0,4
22.03.2017 11:00:00 6,8 5,6 22 12 46 25 SSE 1004,5 10 0 0,6
22.03.2017 10:00:00 6,9 5,2 26 14 48 26 SSE 1004,2 10 0 0,2
22.03.2017 09:00:00 6,7 5,0 29 16 50 27 SSE 1004,2 10 0 0,6
22.03.2017 08:00:00 7,1 4,2 24 13 - - SSE 1003,9 10 0 0,0
22.03.2017 07:00:00 6,7 3,0 18 10 - - ESE 1003,7 10 0 0,0
22.03.2017 06:00:00 6,3 2,7 21 11 - - SE 1004,1 10 0 0,0
22.03.2017 05:00:00 6,3 2,6 16 9 - - SE 1004,8 10 0 0,0
22.03.2017 04:00:00 5,5 2,4 15 8 - - SE 1005,1 10 0 0,0
22.03.2017 03:00:00 5,1 2,1 15 8 - - SE 1005,7 10 0 0,0
22.03.2017 02:00:00 5,3 1,8 16 9 - - SE 1006,5 10 0 0,0
22.03.2017 01:00:00 5,9 2,1 16 9 - - SSE 1007,4 10 0 0,0
22.03.2017 00:00:00 5,5 1,8 13 7 - - SSE 1008,1 10 - 0,0
21.03.2017 23:00:00 6,1 2,4 15 8 - - S 1008,8 10 0 0,0
21.03.2017 22:00:00 5,8 2,7 15 8 - - SSE 1009,2 10 0 0,0
21.03.2017 21:00:00 6,3 2,9 16 9 - - S 1009,7 10 0 0,0
21.03.2017 20:00:00 6,7 2,3 21 11 46 25 SW 1010,2 10 0 0,0
21.03.2017 19:00:00 8,3 0,7 22 12 - - SSW 1010,0 10 0 0,0
21.03.2017 18:00:00 9,4 0,9 22 12 - - WSW 1009,7 10 42 0,0
21.03.2017 17:00:00 9,4 1,5 21 11 - - W 1009,7 10 24 0,0
21.03.2017 16:00:00 10,5 -1,0 24 13 - - WSW 1009,6 10 6 0,0
21.03.2017 15:00:00 10,6 -1,7 24 13 - - WSW 1009,6 10 24 0,0
21.03.2017 14:00:00 10,1 -1,3 24 13 52 28 WSW 1010,1 10 24 0,0
21.03.2017 13:00:00 11,3 -0,7 34 18 48 26 WSW 1010,3 10 24 0,0
21.03.2017 12:00:00 11,0 -1,3 29 16 - - W 1010,4 10 60 0,0
21.03.2017 11:00:00 10,1 0,9 29 16 - - WSW 1010,4 10 60 0,0
21.03.2017 10:00:00 8,4 -0,7 26 14 - - W 1010,4 10 60 0,0
21.03.2017 09:00:00 7,3 0,9 26 14 - - WSW 1010,2 10 60 0,0
21.03.2017 08:00:00 5,7 0,4 22 12 - - WSW 1009,8 10 54 0,0
21.03.2017 07:00:00 4,3 0,6 22 12 - - WSW 1009,3 10 18 0,0
21.03.2017 06:00:00 3,9 1,3 21 11 - - W 1008,6 10 0 0,0
21.03.2017 05:00:00 4,6 1,9 18 10 - - W 1007,8 10 0 0,0
21.03.2017 04:00:00 5,2 2,0 24 13 - - W 1007,2 10 0 0,0
21.03.2017 03:00:00 6,1 2,8 24 13 - - W 1006,8 10 0 0,0
21.03.2017 02:00:00 6,6 3,7 24 13 - - WSW 1006,3 10 0 0,0
21.03.2017 01:00:00 6,5 4,3 16 9 - - WSW 1006,1 10 0 0,0
21.03.2017 00:00:00 6,4 4,6 16 9 - - SW 1006,1 10 - 0,0
20.03.2017 23:00:00 6,7 4,1 13 7 - - SW 1006,0 10 0 0,0
20.03.2017 22:00:00 7,4 4,3 22 12 - - WSW 1005,7 10 0 0,0
20.03.2017 21:00:00 8,2 4,1 22 12 - - W 1005,4 10 0 0,0
20.03.2017 20:00:00 8,5 4,9 24 13 - - W 1004,9 10 0 0,0
20.03.2017 19:00:00 9,2 5,6 26 14 - - WSW 1004,2 10 0 0,0
20.03.2017 18:00:00 9,7 6,3 18 10 - - W 1003,7 10 18 0,0
20.03.2017 17:00:00 10,6 7,2 28 15 54 29 W 1003,2 10 6 0,0
20.03.2017 16:00:00 11,9 9,2 31 17 - - WSW 1002,5 10 12 0,4
20.03.2017 15:00:00 10,9 9,6 28 15 54 29 WSW 1002,4 10 0 0,6
20.03.2017 14:00:00 11,4 9,2 35 19 65 35 SW 1002,0 10 0 0,0
20.03.2017 13:00:00 12,3 8,3 34 18 54 29 SW 1002,5 10 0 0,0
20.03.2017 12:00:00 12,4 9,1 31 17 57 31 SW 1002,6 10 0 0,0
20.03.2017 11:00:00 11,8 10,7 31 17 46 25 SW 1003,2 8 0 0,2
20.03.2017 10:00:00 12,1 10,2 26 14 - - SW 1003,5 10 0 0,0
20.03.2017 09:00:00 11,9 10,3 24 13 - - SW 1003,9 10 0 0,0
20.03.2017 08:00:00 11,4 10,3 21 11 - - SW 1004,2 10 0 0,0
20.03.2017 07:00:00 11,2 10,3 22 12 - - SW 1004,8 6 0 0,0
20.03.2017 06:00:00 11,0 10,1 22 12 - - SW 1005,2 10 0 0,0
20.03.2017 05:00:00 10,8 10,0 22 12 - - SW 1005,3 10 0 0,0
20.03.2017 04:00:00 10,6 10,1 18 10 - - SW 1006,0 7 0 0,2
20.03.2017 03:00:00 11,0 10,0 21 11 - - SW 1006,3 5 0 0,4
20.03.2017 02:00:00 11,2 9,9 21 11 - - SW 1007,0 10 0 0,2
20.03.2017 01:00:00 11,6 9,7 22 12 - - WSW 1007,4 10 0 0,0
20.03.2017 00:00:00 11,7 9,4 26 14 - - SW 1008,1 10 - 0,0
19.03.2017 23:00:00 11,7 9,7 22 12 - - SW 1008,1 10 0 0,0
19.03.2017 22:00:00 11,4 10,2 24 13 - - SW 1008,6 10 0 0,0
19.03.2017 21:00:00 11,6 10,0 24 13 - - SW 1008,7 7 0 0,0

tt = temperature
td = dewpoint
ff = wind speed
fx = gusts
dd = wind direction
ppp = reduced air pressure
vv = visibility
sd = sunshine duration
rr = precipitation

Next stations